Regional Weather Roundup
Issued by NWS

Home | Current Version | Previous Version | Graphics & Text | Print | Product List | Glossary On
Versions: 1 2 3 4 5 6 7 8 9 10 11 12 13 14 15 16 17 18 19 20 21 22 23 24 25 26 27 28 29 30 31 32 33 34 35 36 37 38 39 40 41 42 43 44 45 46 47 48 49 50
000
ASUS43 KMPX 182110
RWRMN
WEATHER ROUNDUP FOR MINNESOTA
NATIONAL WEATHER SERVICE TWIN CITIES/CHANHASSEN MN
300 PM CST SUN FEB 18 2018


NOTE: "FAIR" INDICATES FEW OR NO CLOUDS BELOW 12,000 FEET WITH NO
SIGNIFICANT WEATHER AND/OR OBSTRUCTIONS TO VISIBILITY. N/A MEANS
CURRENT SKY AND/OR WEATHER CONDITIONS ARE NOT AVAILABLE.

MNZ060>063-068>070-182200-
   Twin Cities Metro

CITY           SKY/WX    TMP DP  RH WIND       PRES   REMARKS
TWIN CITIES    CLOUDY    45  31  58 S17G30    29.62F
ST PAUL        FAIR      40  30  67 S10G22    29.64F
CRYSTAL        FAIR      42  30  62 S17G29    29.60F
BLAINE         CLOUDY    45  32  61 S23       29.60F
LAKEVILLE      FAIR      41  28  60 S17G28    29.62S
EDEN PRAIRIE   FAIR      42  31  64 SW23G33   29.58F
SOUTH ST PAUL  FAIR      41  29  61 S14       29.63F
LAKE ELMO      FAIR      41  30  65 S17G23    29.64S
$$
MNZ001>005-007-008-013>017-022>024-027-028-182200-
   Northwest Minnesota

CITY           SKY/WX    TMP DP  RH WIND       PRES   REMARKS
BEMIDJI        FLURRIES  17  13  83 N12G17    29.72R WCI   4
HALLOCK        FAIR      14   7  73 N14       29.90R WCI  -1
ROSEAU         FAIR      12   7  79 NE15      29.87  WCI  -4
WARROAD        LGT SNOW  10   5  79 N15G21    29.88R WCI  -6
THIEF RVR FALL LGT SNOW  14   7  73 N20       29.81R WCI  -3
CROOKSTON      FAIR      14  10  85 N17       29.83R WCI  -3
FOSSTON        LGT SNOW  19  10  68 N15G21    29.75R WCI   5
DETROIT LAKES  PTSUNNY   23  14  68 NE12      29.68R WCI  12
MOORHEAD       MIX PCPN  19  14  79 N23       29.73R WCI   2
PARK RAPIDS    CLOUDY    19  13  77 NE8G17    29.65S WCI   9
MAHNOMEN       FLURRIES  16  12  84 N20       29.70S WCI  -1
$$
MNZ006-009>011-018-025>026-182200-
   North Central Minnesota

CITY           SKY/WX    TMP DP  RH WIND       PRES   REMARKS
BAUDETTE       CLOUDY    11   4  73 NE14      29.82F WCI  -5
FLAG ISLAND    LGT SNOW   9   3  78 NE12      29.89S WCI  -6
INTL FALLS     LGT SNOW  11   7  84 NE12      29.83S FOG     WCI  -3
WASKISH        CLOUDY    14   9  79 NE12G17   29.79R WCI   0
BIG FORK       LGT SNOW  18  12  79 NE8       29.74R WCI   7
LONGVILLE      LGT SNOW  19  14  79 N5        29.69R WCI  13
GRAND RAPIDS   LGT SNOW  18  16  93 VRB6      29.71R FOG     WCI   9
CRANE LAKE     LGT SNOW  12   9  85 N5        29.82F VSB 1   WCI   4
ORR            LGT SNOW  16  10  79 NE3       29.74R
COOK           LGT SNOW  16  12  86 NE7       29.74S VSB 1   WCI   6
WALKER         CLOUDY    18  12  77 NE9       29.69S WCI   7
$$
MNZ012-019>021-037-182200-
   Northeast Minnesota

CITY           SKY/WX    TMP DP  RH WIND       PRES   REMARKS
DULUTH         CLOUDY    21  18  88 E16       29.65F WCI   7
ELY            LGT SNOW  16  10  79 E13       29.73F VSB 1   WCI   2
HIBBING        LGT SNOW  18  14  84 NE7       29.69F VSB 3/4 WCI   9
EVELETH        LGT SNOW N/A N/A N/A NE10      29.70F VSB 1
DULUTH HARBOR  CLOUDY    25  21  86 E24       29.72S WCI   9
TWO HARBORS    CLOUDY    25  19  80 NE12G20   29.68F HAZE    WCI  14
GRAND MARAIS     N/A     19  15  84 NE15G28   29.83F WCI   5
G MARAIS ARPRT LGT SNOW   9   3  78 NE14      29.75S VSB 3/4 WCI  -8
$$
MNZ029>031-032-039>041-046>048-054>057-064-182200-
   West Central Minnesota

CITY           SKY/WX    TMP DP  RH WIND       PRES   REMARKS
FERGUS FALLS   FAIR      23  16  74 NE12G18   29.64R WCI  12
WHEATON        CLOUDY    27  16  63 N18G26    29.64R WCI  13
MORRIS         CLOUDY    37  21  52 N13       29.55R
ALEXANDRIA     PTSUNNY   30  18  60 N14       29.58R WCI  19
ELBOW LAKE     FAIR      27  17  66 NE16G22   29.60S WCI  15
WADENA         FAIR      19  14  79 N13       29.63R WCI   7
GLENWOOD       FAIR      37  25  60 N13G18    29.55R
APPLETON       CLOUDY    43  23  45 NW14      29.55R
BENSON         CLOUDY    45  25  45 N10       29.55S
ORTONVILLE     CLOUDY    36  21  55 N16       29.57R
MADISON        CLOUDY    43  27  52 NW16      29.55R
WILLMAR        FAIR      46  27  46 SW14      29.55S
$$
MNZ033>034-036-042>043-049>051-058-059-182200-
   Central Minnesota

CITY           SKY/WX    TMP DP  RH WIND       PRES   REMARKS
ST CLOUD       FAIR      41  29  62 S12       29.56S
SAUK CENTRE    FAIR      38  25  60 CALM      29.55R
PAYNESVILLE    FAIR      45  29  54 SW7       29.54R
AITKIN         PTSUNNY   21  10  63 NE7       29.63R WCI  13
PINE RIVER     LGT SNOW  18  12  79 N9        29.70R WCI   6
BRAINERD       CLOUDY    27  13  55 N10       29.62S WCI  17
STAPLES        PTSUNNY   23  12  63 N14       29.63R WCI  11
LONG PRAIRIE   FAIR      30  21  69 NW13      29.58R WCI  20
LITTLE FALLS   CLOUDY    34  18  51 N3        29.59
LITCHFIELD     FAIR      45  28  53 SW8       29.55S
BUFFALO        FAIR      40  31  70 S13G18    29.59S
MAPLE LAKE     FAIR      41  32  70 S10G20    29.58S
HUTCHINSON     FAIR      43  32  65 S10       29.57F
$$
MNZ037-044-045-052-053-182200-
   East Central Minnesota

CITY           SKY/WX    TMP DP  RH WIND       PRES   REMARKS
PRINCETON      FAIR      43  30  61 S15G23    29.59R
MORA           FAIR      36  27  69 CALM      29.61F
CAMBRIDGE        N/A     43  28  56 S10       29.59F
RUSH CITY      PTSUNNY   39  29  66 S8        29.61F
MOOSE LAKE     CLOUDY    23  12  63 NE9       29.64R WCI  13
HINCKLEY       CLOUDY    36  28  75 CALM      29.61S
CLOQUET        CLOUDY    21  16  79 E8        29.66S WCI  12
MCGREGOR       CLOUDY    23  14  68 NE8       29.64F WCI  14
$$
MNZ071>073-080-081-089-090-097-098-182200-
   Southwest Minnesota

CITY           SKY/WX    TMP DP  RH WIND       PRES   REMARKS
MONTEVIDEO     CLOUDY    46  27  46 NW8       29.53R
GRANITE FALLS  CLOUDY    48  31  51 SW14G22   29.54S
CANBY          CLOUDY    42  26  53 NW15      29.54R
MARSHALL       CLOUDY    48  29  47 W21       29.52S
REDWOOD FALLS  CLOUDY    45  30  55 SW18G25   29.54F
OLIVIA         CLOUDY    45  30  57 SW14      29.53S
PIPESTONE      CLOUDY    43  30  61 SW14      29.50F
WINDOM         CLOUDY    41  23  48 S12G21    29.56R
WORTHINGTON    CLOUDY    40  31  70 S23G29    29.53F
JACKSON        CLOUDY    41  32  70 S14       29.57F
TRACY          CLOUDY    46  33  61 SW14      29.53S
SLAYTON        MOSUNNY   41  32  70 S14       29.54R
$$
MNZ065>067-074>077-082>085-091>093-182200-
   South Central Minnesota

CITY           SKY/WX    TMP DP  RH WIND       PRES   REMARKS
MANKATO        FAIR      42  31  64 S17G23    29.60F
NEW ULM        CLOUDY    41  30  65 S13G20    29.58S
ST JAMES       CLOUDY    39  32  75 S16       29.59S
FAIRMONT       MOSUNNY   40  31  70 S16       29.59F
GLENCOE        FAIR      41  34  75 S9G17     29.58S
FARIBAULT      FAIR      43  30  61 S14G25    29.64S
OWATONNA       FAIR      41  30  65 S20       29.64R
WASECA         FAIR      39  32  75 S17       29.65S
ALBERT LEA     FAIR      43  27  52 S17G30    29.63F
$$
MNZ078>079-086>088-094>096-182200-
   Southeast Minnesota

CITY           SKY/WX    TMP DP  RH WIND       PRES   REMARKS
ROCHESTER      FAIR      37  29  72 S25G41    29.67R
RED WING       FAIR      43  23  45 S18G30    29.67F
STANTON        FAIR      41  30  65 S15G24    29.63F
DODGE CENTER   FAIR      37  30  75 S26G35    29.65F
WINONA         FAIR      41  27  56 S12G18    29.69F
AUSTIN         FAIR      39  30  70 S20G26    29.67S
PRESTON        FAIR      37  27  69 S28G40    29.67F
$$
ABBREVIATIONS USED IN REMARKS
   TC - TEMPERATURES IN CELSIUS
  WCI - WIND CHILL INDEX
   HX - HEAT INDEX
  VSB - VISIBILITY
$$




USA.gov is the U.S. government's official web portal to all federal, state and local government web resources and services.